TimeAEST,TemperatureF,Dew PointF,Humidity,Sea Level PressureIn,VisibilityMPH,Wind Direction,Wind SpeedMPH,Gust SpeedMPH,PrecipitationIn,Events,Conditions,WindDirDegrees,DateUTC
12:00 AM,78,72,77,29.94,16,WNW,5.8,,,,Partly Cloudy,290,2011-10-14 14:00:00
12:00 AM,77.0,71.6,83,29.92,6.2,WNW,5.8,-,N/A,,Partly Cloudy,290,2011-10-14 14:00:00
12:30 AM,77.0,73.4,89,29.92,6.2,WSW,3.5,-,N/A,,Mostly Cloudy,250,2011-10-14 14:30:00
1:00 AM,78,73,79,29.93,,Calm,Calm,,,,,,2011-10-14 15:00:00
1:00 AM,77.0,73.4,89,29.92,-9999.0,Calm,Calm,-,N/A,,Unknown,0,2011-10-14 15:00:00
1:30 AM,77.0,71.6,83,29.92,6.2,SSE,8.1,-,N/A,,Mostly Cloudy,160,2011-10-14 15:30:00
2:00 AM,77.0,71.6,83,29.92,6.2,South,10.4,-,N/A,,Mostly Cloudy,180,2011-10-14 16:00:00
2:30 AM,77.0,71.6,83,29.92,6.2,South,8.1,-,N/A,,Mostly Cloudy,180,2011-10-14 16:30:00
3:00 AM,77,71,78,29.92,16,West,4.6,,,,Partly Cloudy,280,2011-10-14 17:00:00
3:00 AM,77.0,71.6,83,29.92,6.2,West,4.6,-,N/A,,Mostly Cloudy,280,2011-10-14 17:00:00
3:26 AM,77.0,71.6,83,29.89,6.2,West,2.3,-,N/A,,Mostly Cloudy,270,2011-10-14 17:26:00
3:30 AM,77.0,71.6,83,29.89,6.2,Calm,Calm,-,N/A,,Mostly Cloudy,0,2011-10-14 17:30:00
4:00 AM,76,71,81,29.91,,Calm,Calm,,,,,,2011-10-14 18:00:00
4:00 AM,77.0,71.6,83,29.89,6.2,Calm,Calm,-,N/A,,Scattered Clouds,0,2011-10-14 18:00:00
4:30 AM,75.2,71.6,89,29.89,6.2,Calm,Calm,-,N/A,,Scattered Clouds,0,2011-10-14 18:30:00
5:00 AM,75.2,71.6,89,29.89,6.2,WNW,1.2,-,N/A,,Mostly Cloudy,290,2011-10-14 19:00:00
5:30 AM,77.0,71.6,83,29.89,6.2,West,4.6,-,N/A,,Mostly Cloudy,280,2011-10-14 19:30:00
6:00 AM,77,72,79,29.93,16,West,3.5,,,,Partly Cloudy,280,2011-10-14 20:00:00
6:00 AM,77.0,71.6,83,29.92,6.2,West,3.5,-,N/A,,Overcast,280,2011-10-14 20:00:00
6:30 AM,77.0,71.6,83,29.92,6.2,West,2.3,-,N/A,,Overcast,270,2011-10-14 20:30:00
7:00 AM,78,72,75,29.96,,West,5.8,,,,,270,2011-10-14 21:00:00
7:00 AM,77.0,71.6,83,29.95,6.2,West,5.8,-,N/A,,Mostly Cloudy,270,2011-10-14 21:00:00
7:30 AM,78.8,71.6,78,29.95,6.2,WSW,1.2,-,N/A,,Mostly Cloudy,250,2011-10-14 21:30:00
8:00 AM,80.6,71.6,74,29.95,6.2,NW,4.6,-,N/A,,Mostly Cloudy,310,2011-10-14 22:00:00
8:30 AM,82.4,73.4,74,29.95,6.2,North,4.6,-,N/A,,Mostly Cloudy,360,2011-10-14 22:30:00
9:00 AM,84,74,64,29.96,16,North,9.2,,,,Partly Cloudy,0,2011-10-14 23:00:00
9:00 AM,84.2,73.4,70,29.95,6.2,North,9.2,-,N/A,,Scattered Clouds,360,2011-10-14 23:00:00
9:30 AM,82.4,73.4,74,29.95,6.2,NNE,10.4,-,N/A,,Scattered Clouds,20,2011-10-14 23:30:00
10:00 AM,85,72,56,29.96,,North,12.7,,,,,10,2011-10-15 00:00:00
10:00 AM,86.0,71.6,62,29.95,6.2,North,12.7,-,N/A,,Scattered Clouds,10,2011-10-15 00:00:00
10:30 AM,84.2,71.6,66,29.92,6.2,North,13.8,-,N/A,,Partly Cloudy,360,2011-10-15 00:30:00
11:00 AM,86.0,73.4,66,29.92,6.2,North,17.3,-,N/A,,Scattered Clouds,10,2011-10-15 01:00:00
11:30 AM,87.8,73.4,62,29.92,6.2,North,15.0,-,N/A,,Mostly Cloudy,10,2011-10-15 01:30:00
12:00 PM,86,73,57,29.90,16,North,16.1,,,,Partly Cloudy,350,2011-10-15 02:00:00
12:00 PM,86.0,73.4,66,29.89,6.2,North,16.1,-,N/A,,Scattered Clouds,350,2011-10-15 02:00:00
12:30 PM,86.0,73.4,66,29.86,6.2,North,13.8,-,N/A,,Scattered Clouds,360,2011-10-15 02:30:00
1:00 PM,86,73,58,29.87,,North,13.8,,,,,0,2011-10-15 03:00:00
1:00 PM,86.0,73.4,66,29.86,6.2,North,13.8,-,N/A,,Scattered Clouds,360,2011-10-15 03:00:00
1:30 PM,86.0,73.4,66,29.83,6.2,North,16.1,-,N/A,,Scattered Clouds,360,2011-10-15 03:30:00
2:00 PM,84.2,75.2,74,29.83,6.2,North,12.7,-,N/A,,Scattered Clouds,10,2011-10-15 04:00:00
2:30 PM,82.4,75.2,79,29.83,6.2,North,12.7,-,N/A,,Mostly Cloudy,360,2011-10-15 04:30:00
3:00 PM,81,75,77,29.85,12,North,10.4,,,Thunderstorm,Thunderstorm,0,2011-10-15 05:00:00
3:00 PM,80.6,75.2,84,29.83,6.2,North,10.4,-,N/A,,Partly Cloudy,360,2011-10-15 05:00:00
3:30 PM,80.6,75.2,84,29.83,6.2,North,6.9,-,N/A,Rain-Thunderstorm,Light Rain Showers,10,2011-10-15 05:30:00
4:00 PM,80,74,78,29.87,,NW,5.8,,,,,310,2011-10-15 06:00:00
4:00 PM,80.6,75.2,84,29.86,6.2,NW,5.8,-,N/A,Rain-Thunderstorm,Light Rain Showers,310,2011-10-15 06:00:00
4:10 PM,80.6,73.4,79,29.86,3.7,West,4.6,-,N/A,Rain-Thunderstorm,Light Rain Showers,260,2011-10-15 06:10:00
4:29 PM,80.6,75.2,84,29.83,6.2,ENE,5.8,-,N/A,Rain,Light Rain Showers,70,2011-10-15 06:29:00
4:45 PM,78.8,71.6,78,29.86,6.2,ESE,3.5,-,N/A,Rain,Light Rain Showers,120,2011-10-15 06:45:00
5:00 PM,77.0,71.6,83,29.89,6.2,South,8.1,-,N/A,Rain,Light Rain Showers,170,2011-10-15 07:00:00
5:30 PM,77.0,71.6,83,29.89,3.7,SW,5.8,-,N/A,Rain-Thunderstorm,Light Rain Showers,230,2011-10-15 07:30:00
5:43 PM,77.0,71.6,83,29.89,3.7,SSW,5.8,-,N/A,Rain-Thunderstorm,Light Thunderstorms and Rain,210,2011-10-15 07:43:00
5:53 PM,75.2,71.6,89,29.89,6.2,NW,8.1,-,N/A,,Overcast,310,2011-10-15 07:53:00
6:00 PM,74,71,89,29.90,,West,6.9,,,,Overcast,270,2011-10-15 08:00:00
6:00 PM,75.2,71.6,89,29.89,5.0,West,6.9,-,N/A,Rain-Thunderstorm,Light Rain Showers,270,2011-10-15 08:00:00
6:23 PM,75.2,71.6,89,29.89,3.7,NW,2.3,-,N/A,Rain,Light Rain Showers,310,2011-10-15 08:23:00
6:30 PM,75.2,73.4,94,29.92,3.7,NW,3.5,-,N/A,Rain,Light Rain Showers,310,2011-10-15 08:30:00
7:00 PM,75,74,95,29.94,,South,3.5,,,,,170,2011-10-15 09:00:00
7:00 PM,75.2,73.4,94,29.92,3.7,South,3.5,-,N/A,Rain,Light Rain Showers,170,2011-10-15 09:00:00
7:30 PM,73.4,71.6,94,29.92,4.3,West,6.9,-,N/A,Rain,Light Rain Showers,260,2011-10-15 09:30:00
7:53 PM,73.4,68.0,83,29.92,4.3,WNW,12.7,-,N/A,Rain-Thunderstorm,Light Thunderstorms and Rain,290,2011-10-15 09:53:00
8:00 PM,73.4,68.0,83,29.92,4.3,West,11.5,-,N/A,Rain-Thunderstorm,Light Thunderstorms and Rain,280,2011-10-15 10:00:00
8:01 PM,73.4,68.0,83,29.92,4.3,West,11.5,-,N/A,Rain-Thunderstorm,Light Thunderstorms and Rain,280,2011-10-15 10:01:00
8:30 PM,71.6,68.0,88,29.89,6.2,West,15.0,-,N/A,Rain-Thunderstorm,Light Thunderstorms and Rain,280,2011-10-15 10:30:00
9:00 PM,74,67,71,29.89,9,West,11.5,,,Rain,Light Rain,280,2011-10-15 11:00:00
9:00 PM,73.4,66.2,78,29.89,6.2,West,11.5,-,N/A,Rain,Light Rain,280,2011-10-15 11:00:00
9:21 PM,75.2,66.2,73,29.92,6.2,SSE,17.3,31.1,N/A,,Overcast,160,2011-10-15 11:21:00
9:30 PM,75.2,66.2,73,29.92,6.2,South,13.8,-,N/A,,Overcast,170,2011-10-15 11:30:00
10:00 PM,73,68,80,29.92,,WNW,6.9,,,,,290,2011-10-15 12:00:00
10:00 PM,73.4,68.0,83,29.92,6.2,WNW,6.9,-,N/A,,Overcast,290,2011-10-15 12:00:00
10:30 PM,75.2,66.2,73,29.89,6.2,West,12.7,-,N/A,,Overcast,260,2011-10-15 12:30:00
11:00 PM,75.2,66.2,73,29.86,6.2,WSW,9.2,-,N/A,,Overcast,250,2011-10-15 13:00:00
11:30 PM,77.0,64.4,65,29.86,6.2,South,8.1,-,N/A,,Overcast,190,2011-10-15 13:30:00